Simultaneous Nadir Overpasses (SNOs) Predictions

Prediction of SNOs between AQUA and GOES-15 Satellite Orbit:

Table of predicted SNOs for the next 14.0 days since TLE Epoch: 10/14/2016
Index Date Time (AQUA) AQUA Lat,Lon GOES-15 Lat,Lon Distance(km) Time Diff (sec)
1 10/14/2016 22:28:24 0.12,-133.35 -0.20,-134.93 179.81 80
2 10/15/2016 10:49:40 0.93,-138.51 0.18,-134.95 405.14 80
3 10/17/2016 10:37:27 0.36,-135.54 0.19,-134.87 77.12 80
4 10/19/2016 10:25:15 -0.28,-132.58 0.19,-134.78 250.31 80
5 10/19/2016 22:46:39 -0.83,-137.77 -0.17,-134.72 347.23 80
6 10/21/2016 22:34:26 -0.23,-134.80 -0.17,-134.63 20.65 80
7 10/23/2016 22:22:14 0.43,-131.85 -0.17,-134.54 306.06 80
8 10/24/2016 10:43:28 0.66,-137.01 0.14,-134.55 278.56 80
9 10/26/2016 10:31:16 0.04,-134.04 0.14,-134.46 47.77 80
10 10/28/2016 10:19:02 -0.53,-131.07 0.15,-134.36 373.92 80




NCC Satellite Simultaneous Nadir Overpasses (SNOs) Prediction Service
